N750TB SEMT-SEQM

Flight info

Callsign N750TB
Flight time 0h 41m
Altitude 21000
Route ANLIR1B ANLIR W6 ORETA
Aircraft TBM8/L-SDFGRWY/S

Departure

Time 2026-04-19 03:02
Airport Eloy Alfaro International Airport (SEMT)

Arrival

Time 2026-04-19 03:43
Airport Mariscal Sucre International Airport (SEQM)
Time Latitude Longitude Altitude Speed Heading
2026-04-19 02:47 -0.95251 -80.68372 43 ft 0 kts 143°
2026-04-19 02:52 -0.95255 -80.68365 43 ft 3 kts 90°
2026-04-19 02:53 -0.95235 -80.68357 43 ft 5 kts 324°
2026-04-19 02:53 -0.95198 -80.68392 43 ft 9 kts 310°
2026-04-19 02:53 -0.95159 -80.68457 42 ft 6 kts 295°
2026-04-19 02:53 -0.95156 -80.68460 42 ft 2 kts 325°
2026-04-19 02:54 -0.95146 -80.68460 42 ft 3 kts 30°
2026-04-19 02:54 -0.95112 -80.68364 43 ft 18 kts 60°
2026-04-19 02:54 -0.95047 -80.68270 44 ft 10 kts 54°
2026-04-19 02:54 -0.94999 -80.68202 44 ft 13 kts 54°
2026-04-19 02:55 -0.94942 -80.68115 44 ft 17 kts 56°
2026-04-19 02:55 -0.94875 -80.68010 45 ft 19 kts 53°
2026-04-19 02:55 -0.94795 -80.67893 46 ft 22 kts 56°
2026-04-19 02:55 -0.94711 -80.67777 46 ft 22 kts 55°
2026-04-19 02:56 -0.94621 -80.67647 47 ft 24 kts 56°
2026-04-19 02:56 -0.94522 -80.67501 48 ft 26 kts 56°
2026-04-19 02:56 -0.94427 -80.67361 49 ft 22 kts 56°
2026-04-19 02:56 -0.94338 -80.67231 50 ft 23 kts 56°
2026-04-19 02:57 -0.94241 -80.67092 51 ft 25 kts 55°
2026-04-19 02:57 -0.94157 -80.66970 52 ft 20 kts 56°
2026-04-19 02:57 -0.94102 -80.66891 49 ft 2 kts 55°
2026-04-19 03:00 -0.94078 -80.66858 52 ft 12 kts 54°
2026-04-19 03:01 -0.94000 -80.66811 52 ft 15 kts
2026-04-19 03:01 -0.93901 -80.66841 52 ft 14 kts 278°
2026-04-19 03:01 -0.93915 -80.66869 50 ft 6 kts 234°
2026-04-19 03:01 -0.93946 -80.66912 52 ft 10 kts 234°
2026-04-19 03:02 -0.94116 -80.67160 52 ft 81 kts 234°
2026-04-19 03:02 -0.94524 -80.67793 281 ft 124 kts 233°
2026-04-19 03:02 -0.95063 -80.68555 736 ft 142 kts 234°
2026-04-19 03:02 -0.95658 -80.69415 1224 ft 160 kts 235°
2026-04-19 03:03 -0.96331 -80.70364 1812 ft 175 kts 235°
2026-04-19 03:03 -0.97051 -80.71380 2398 ft 181 kts 235°
2026-04-19 03:03 -0.97789 -80.72417 2951 ft 188 kts 235°
2026-04-19 03:03 -0.98605 -80.73564 3108 ft 211 kts 235°
2026-04-19 03:04 -0.99478 -80.74752 3420 ft 218 kts 228°
2026-04-19 03:04 -1.00801 -80.75540 3728 ft 225 kts 194°
2026-04-19 03:04 -1.02361 -80.75460 4029 ft 229 kts 161°
2026-04-19 03:04 -1.03644 -80.74541 4330 ft 232 kts 129°
2026-04-19 03:05 -1.04250 -80.73047 4645 ft 234 kts 96°
2026-04-19 03:05 -1.03976 -80.71479 4965 ft 235 kts 65°
2026-04-19 03:05 -1.03020 -80.70160 5270 ft 236 kts 49°
2026-04-19 03:05 -1.01910 -80.68938 5589 ft 237 kts 50°
2026-04-19 03:06 -1.01026 -80.67580 6068 ft 231 kts 62°
2026-04-19 03:06 -1.00193 -80.66221 6539 ft 228 kts 57°
2026-04-19 03:06 -0.99313 -80.64894 6923 ft 231 kts 57°
2026-04-19 03:06 -0.98442 -80.63538 7298 ft 233 kts 58°
2026-04-19 03:07 -0.97575 -80.62159 7677 ft 235 kts 58°
2026-04-19 03:07 -0.96698 -80.60770 8063 ft 236 kts 58°
2026-04-19 03:07 -0.95826 -80.59397 8448 ft 238 kts 58°
2026-04-19 03:07 -0.94929 -80.57984 8844 ft 239 kts 58°
2026-04-19 03:08 -0.94048 -80.56595 9238 ft 240 kts 57°
2026-04-19 03:08 -0.93151 -80.55180 9638 ft 241 kts 57°
2026-04-19 03:08 -0.92237 -80.53739 10023 ft 243 kts 57°
2026-04-19 03:08 -0.91332 -80.52311 10390 ft 244 kts 57°
2026-04-19 03:09 -0.90436 -80.50898 10756 ft 245 kts 57°
2026-04-19 03:09 -0.89524 -80.49459 11131 ft 246 kts 58°
2026-04-19 03:09 -0.88593 -80.47993 11513 ft 247 kts 58°
2026-04-19 03:09 -0.87671 -80.46539 11894 ft 247 kts 58°
2026-04-19 03:10 -0.86762 -80.45105 12283 ft 248 kts 58°
2026-04-19 03:10 -0.85826 -80.43629 12681 ft 249 kts 58°
2026-04-19 03:10 -0.84908 -80.42180 13079 ft 250 kts 58°
2026-04-19 03:10 -0.83974 -80.40708 13479 ft 251 kts 58°
2026-04-19 03:11 -0.83035 -80.39228 13871 ft 252 kts 58°
2026-04-19 03:11 -0.82096 -80.37747 14235 ft 253 kts 58°
2026-04-19 03:11 -0.81149 -80.36254 14601 ft 254 kts 58°
2026-04-19 03:11 -0.80310 -80.34712 14973 ft 254 kts 68°
2026-04-19 03:12 -0.79644 -80.33071 15355 ft 255 kts 68°
2026-04-19 03:12 -0.78964 -80.31434 15738 ft 255 kts 68°
2026-04-19 03:12 -0.78276 -80.29793 16122 ft 256 kts 68°
2026-04-19 03:12 -0.77593 -80.28154 16510 ft 257 kts 68°
2026-04-19 03:13 -0.76905 -80.26501 16907 ft 257 kts 68°
2026-04-19 03:13 -0.76219 -80.24852 17305 ft 258 kts 67°
2026-04-19 03:13 -0.75542 -80.23226 17702 ft 258 kts 67°
2026-04-19 03:13 -0.74838 -80.21537 18120 ft 259 kts 67°
2026-04-19 03:14 -0.74154 -80.19895 18485 ft 259 kts 67°
2026-04-19 03:14 -0.73456 -80.18218 18845 ft 260 kts 67°
2026-04-19 03:14 -0.72761 -80.16550 19201 ft 261 kts 67°
2026-04-19 03:14 -0.72060 -80.14866 19568 ft 262 kts 67°
2026-04-19 03:15 -0.71360 -80.13186 19932 ft 263 kts 67°
2026-04-19 03:15 -0.70657 -80.11497 20305 ft 264 kts 67°
2026-04-19 03:15 -0.69949 -80.09797 20684 ft 265 kts 67°
2026-04-19 03:15 -0.69240 -80.08093 20960 ft 260 kts 68°
2026-04-19 03:16 -0.68588 -80.06510 20965 ft 234 kts 68°
2026-04-19 03:16 -0.67992 -80.05083 20957 ft 211 kts 67°
2026-04-19 03:16 -0.67447 -80.03790 20975 ft 205 kts 66°
2026-04-19 03:16 -0.66843 -80.02373 20992 ft 238 kts 66°
2026-04-19 03:17 -0.66170 -80.00752 20997 ft 265 kts 68°
2026-04-19 03:17 -0.65442 -79.98973 21000 ft 285 kts 68°
2026-04-19 03:17 -0.64666 -79.97096 21003 ft 300 kts 67°
2026-04-19 03:17 -0.63859 -79.95160 21005 ft 310 kts 67°
2026-04-19 03:18 -0.63008 -79.93120 21006 ft 317 kts 67°
2026-04-19 03:18 -0.62168 -79.91100 21012 ft 321 kts 67°
2026-04-19 03:18 -0.61307 -79.89028 21012 ft 325 kts 67°
2026-04-19 03:18 -0.60435 -79.86934 21012 ft 327 kts 67°
2026-04-19 03:19 -0.59560 -79.84833 21021 ft 328 kts 67°
2026-04-19 03:19 -0.58679 -79.82719 21020 ft 329 kts 67°
2026-04-19 03:19 -0.57799 -79.80604 21023 ft 330 kts 67°
2026-04-19 03:19 -0.56918 -79.78489 21030 ft 330 kts 67°
2026-04-19 03:20 -0.56035 -79.76370 21030 ft 330 kts 67°
2026-04-19 03:20 -0.55151 -79.74247 21032 ft 330 kts 67°
2026-04-19 03:20 -0.54267 -79.72124 21034 ft 330 kts 67°
2026-04-19 03:20 -0.53386 -79.70009 21038 ft 331 kts 67°
2026-04-19 03:21 -0.52500 -79.67881 21045 ft 331 kts 67°
2026-04-19 03:21 -0.51618 -79.65765 21044 ft 331 kts 67°
2026-04-19 03:21 -0.50731 -79.63637 21044 ft 331 kts 67°
2026-04-19 03:21 -0.49850 -79.61521 21050 ft 331 kts 67°
2026-04-19 03:22 -0.48964 -79.59397 21055 ft 331 kts 67°
2026-04-19 03:22 -0.48078 -79.57269 21055 ft 331 kts 67°
2026-04-19 03:22 -0.47195 -79.55151 21059 ft 331 kts 67°
2026-04-19 03:22 -0.46309 -79.53024 21064 ft 331 kts 67°
2026-04-19 03:23 -0.45437 -79.50931 21061 ft 331 kts 67°
2026-04-19 03:23 -0.44550 -79.48804 21063 ft 331 kts 67°
2026-04-19 03:23 -0.43665 -79.46680 21071 ft 331 kts 67°
2026-04-19 03:23 -0.42786 -79.44569 21069 ft 331 kts 67°
2026-04-19 03:24 -0.41895 -79.42432 21082 ft 331 kts 67°
2026-04-19 03:24 -0.41011 -79.40311 21084 ft 331 kts 67°
2026-04-19 03:24 -0.40125 -79.38186 21094 ft 331 kts 67°
2026-04-19 03:24 -0.39241 -79.36063 21099 ft 331 kts 67°
2026-04-19 03:25 -0.38355 -79.33936 21104 ft 331 kts 67°
2026-04-19 03:25 -0.37466 -79.31804 21108 ft 331 kts 67°
2026-04-19 03:25 -0.36579 -79.29675 21119 ft 331 kts 67°
2026-04-19 03:25 -0.35693 -79.27550 21121 ft 331 kts 67°
2026-04-19 03:26 -0.34806 -79.25421 21134 ft 331 kts 67°
2026-04-19 03:26 -0.33923 -79.23302 21133 ft 331 kts 67°
2026-04-19 03:26 -0.33034 -79.21168 21135 ft 331 kts 67°
2026-04-19 03:26 -0.32148 -79.19042 21146 ft 332 kts 67°
2026-04-19 03:27 -0.31389 -79.16868 21160 ft 332 kts 76°
2026-04-19 03:27 -0.30890 -79.14614 21174 ft 332 kts 80°
2026-04-19 03:27 -0.30854 -79.12318 21186 ft 332 kts 96°
2026-04-19 03:27 -0.31169 -79.10031 21196 ft 332 kts 100°
2026-04-19 03:28 -0.31568 -79.07755 21204 ft 333 kts 101°
2026-04-19 03:28 -0.31988 -79.05481 21117 ft 335 kts 101°
2026-04-19 03:28 -0.32420 -79.03171 20911 ft 340 kts 101°
2026-04-19 03:28 -0.32861 -79.00834 20662 ft 344 kts 101°
2026-04-19 03:29 -0.33309 -78.98467 20416 ft 346 kts 101°
2026-04-19 03:29 -0.33752 -78.96122 20175 ft 347 kts 101°
2026-04-19 03:29 -0.34202 -78.93750 19927 ft 347 kts 101°
2026-04-19 03:29 -0.34504 -78.92153 19768 ft 347 kts 101°
2026-04-19 03:30 -0.34952 -78.89789 19525 ft 346 kts 101°
2026-04-19 03:30 -0.35398 -78.87428 19290 ft 346 kts 101°
2026-04-19 03:30 -0.35841 -78.85075 19054 ft 345 kts 101°
2026-04-19 03:30 -0.36286 -78.82710 18815 ft 344 kts 101°
2026-04-19 03:31 -0.36726 -78.80369 18575 ft 343 kts 101°
2026-04-19 03:31 -0.37164 -78.78031 18322 ft 342 kts 101°
2026-04-19 03:31 -0.37612 -78.75729 18316 ft 335 kts 104°
2026-04-19 03:31 -0.38301 -78.73522 18324 ft 329 kts 111°
2026-04-19 03:32 -0.39120 -78.71398 18333 ft 326 kts 112°
2026-04-19 03:32 -0.39963 -78.69301 18341 ft 325 kts 113°
2026-04-19 03:32 -0.40816 -78.67199 18232 ft 327 kts 113°
2026-04-19 03:32 -0.41674 -78.65091 18090 ft 329 kts 113°
2026-04-19 03:33 -0.42537 -78.62967 17978 ft 329 kts 113°
2026-04-19 03:33 -0.43394 -78.60858 17988 ft 326 kts 113°
2026-04-19 03:33 -0.44243 -78.58762 17990 ft 324 kts 113°
2026-04-19 03:33 -0.45086 -78.56677 17995 ft 322 kts 113°
2026-04-19 03:34 -0.45924 -78.54604 17996 ft 322 kts 113°
2026-04-19 03:34 -0.46774 -78.52503 17604 ft 329 kts 113°
2026-04-19 03:34 -0.47638 -78.50375 17140 ft 331 kts 113°
2026-04-19 03:34 -0.48507 -78.48238 16676 ft 332 kts 113°
2026-04-19 03:35 -0.49379 -78.46100 16223 ft 332 kts 113°
2026-04-19 03:35 -0.50246 -78.43983 16011 ft 324 kts 113°
2026-04-19 03:35 -0.50812 -78.41931 15987 ft 283 kts 94°
2026-04-19 03:35 -0.50531 -78.40165 15796 ft 242 kts 66°
2026-04-19 03:36 -0.49632 -78.38864 15446 ft 222 kts 38°
2026-04-19 03:36 -0.48260 -78.38245 15113 ft 215 kts 10°
2026-04-19 03:36 -0.46801 -78.37999 14808 ft 211 kts
2026-04-19 03:36 -0.45363 -78.37729 14511 ft 208 kts
2026-04-19 03:37 -0.43974 -78.37419 14217 ft 206 kts 11°
2026-04-19 03:37 -0.42546 -78.37097 13853 ft 204 kts 10°
2026-04-19 03:37 -0.41153 -78.36790 13424 ft 206 kts 11°
2026-04-19 03:37 -0.39754 -78.36483 13011 ft 207 kts 11°
2026-04-19 03:38 -0.38350 -78.36173 12592 ft 207 kts 11°
2026-04-19 03:38 -0.36949 -78.35863 12194 ft 205 kts 11°
2026-04-19 03:38 -0.35567 -78.35559 11782 ft 198 kts 12°
2026-04-19 03:38 -0.34280 -78.35276 11357 ft 183 kts 13°
2026-04-19 03:39 -0.33073 -78.35011 10924 ft 171 kts 12°
2026-04-19 03:39 -0.31938 -78.34763 10543 ft 164 kts 12°
2026-04-19 03:39 -0.30738 -78.34505 10508 ft 191 kts 11°
2026-04-19 03:39 -0.29341 -78.34491 10509 ft 212 kts 348°
2026-04-19 03:40 -0.27867 -78.34746 10508 ft 223 kts 355°
2026-04-19 03:40 -0.26293 -78.34839 10435 ft 228 kts 358°
2026-04-19 03:40 -0.24775 -78.34889 10159 ft 202 kts 358°
2026-04-19 03:40 -0.23471 -78.34952 9898 ft 179 kts 357°
2026-04-19 03:41 -0.22312 -78.35008 9681 ft 156 kts 358°
2026-04-19 03:41 -0.21207 -78.35053 9474 ft 165 kts 357°
2026-04-19 03:41 -0.20037 -78.35107 9247 ft 171 kts 357°
2026-04-19 03:41 -0.18989 -78.35151 9032 ft 125 kts 356°
2026-04-19 03:42 -0.18197 -78.35186 8850 ft 107 kts 356°
2026-04-19 03:42 -0.17481 -78.35220 8672 ft 100 kts 356°
2026-04-19 03:42 -0.16801 -78.35253 8517 ft 98 kts 357°
2026-04-19 03:42 -0.16127 -78.35283 8367 ft 95 kts 354°
2026-04-19 03:43 -0.15465 -78.35317 8210 ft 95 kts 356°
2026-04-19 03:43 -0.14827 -78.35347 8024 ft 87 kts 358°
2026-04-19 03:43 -0.14249 -78.35377 7920 ft 81 kts 356°
2026-04-19 03:43 -0.13806 -78.35394 7892 ft 34 kts 358°
2026-04-19 03:44 -0.13655 -78.35402 7889 ft 22 kts 357°
2026-04-19 03:44 -0.13499 -78.35407 7886 ft 16 kts
2026-04-19 03:44 -0.13443 -78.35401 7885 ft 4 kts 311°
2026-04-19 03:44 -0.13466 -78.35438 7884 ft 10 kts 201°
2026-04-19 03:45 -0.13539 -78.35471 7885 ft 13 kts 207°
2026-04-19 03:45 -0.13606 -78.35513 7885 ft 12 kts 228°
2026-04-19 03:45 -0.13580 -78.35590 7876 ft 15 kts 308°
2026-04-19 03:45 -0.13606 -78.35632 7873 ft 8 kts 179°
2026-04-19 03:46 -0.13654 -78.35629 7877 ft 6 kts 176°
2026-04-19 03:46 -0.13672 -78.35628 7878 ft 4 kts 188°
2026-04-19 03:46 -0.13677 -78.35665 7874 ft 6 kts 264°
2026-04-19 03:46 -0.13678 -78.35668 7874 ft 0 kts 263°